Regional Weather Roundup
Issued by NWS Goodland, KS

Home | Current Version | Previous Version | Graphics & Text | Print | Product List | Glossary On
Versions: 1 2 3 4 5 6 7 8 9 10 11 12 13 14 15 16 17 18 19 20 21 22 23 24 25 26 27 28 29 30 31 32 33 34 35 36 37 38 39 40 41 42 43 44 45 46 47 48 49 50
000
ASUS43 KGLD 221908
RWRGLD

GOODLAND FORECAST AREA HOURLY WEATHER ROUNDUP
NATIONAL WEATHER SERVICE GOODLAND KS
100 PM MDT WED MAR 22 2017

...OFFICIAL OBSERVATIONS...

CITY           SKY/WX    TMP DP  RH WIND       PRES   REMARKS
GOODLAND KS    CLOUDY    52  33  48 S22G35    30.06F
HILL CITY KS   CLOUDY    50  29  44 S17G23    30.17F
IMPERIAL NEB   CLOUDY    55  33  43 S22G28    30.05F
MCCOOK NEB     CLOUDY    48  27  44 S15       30.12F
AKRON CO       SUNNY     60  33  36 S25G33    29.96F
BURLINGTON CO  CLOUDY    53  35  50 S23G30    30.04F
LIMON CO       SUNNY     61  37  41 SE23G29   30.01F
$$

...UNOFFICIAL OBSERVATIONS...

CITY           SKY/WX    TMP DP  RH WIND       PRES   REMARKS
LENORA KS        N/A     48  32  54 SE12        N/A
NORTON KS      CLOUDY    48  21  34 SE12G22   30.15
SHARON SPRINGS   N/A     55  40  57 SE20G29     N/A
TRENTON NEB      N/A     53  32  45 SE12        N/A
KIT CARSON CO    N/A     56  37  49 MISG        N/A
YUMA CO        FAIR      55  32  41 S22G28    30.00F
$$




USA.gov is the U.S. government's official web portal to all federal, state and local government web resources and services.